Regional Weather Roundup
Issued by NWS

Home | Current Version | Previous Version | Text Only | Print | Product List | Glossary On
Versions: 1 2 3 4 5 6 7 8 9 10 11 12 13 14 15 16 17 18 19 20 21 22 23 24 25 26 27 28 29 30 31 32 33 34 35 36 37 38 39 40 41 42 43 44 45 46 47 48 49 50
000
ASUS43 KBIS 290620
RWRND

NORTH DAKOTA REGIONAL WEATHER ROUNDUP
NATIONAL WEATHER SERVICE BISMARCK ND
100 AM CDT FRI AUG 29 2014

NOTE: "FAIR" INDICATES FEW OR NO CLOUDS BELOW 12,000 FEET WITH NO
SIGNIFICANT WEATHER AND/OR OBSTRUCTIONS TO VISIBILITY.


NDZ001>003-009>011-017-290700-
NORTHWEST NORTH DAKOTA

CITY           SKY/WX    TMP DP  RH WIND       PRES   REMARKS
WILLISTON      CLEAR     69  55  60 N3        29.78R
6HR MIN TEMP:  68; 6HR MAX TEMP:  91;

MINOT          FAIR      70  64  81 S8        29.74F
MINOT AFB      FAIR      69  68  97 SW13      29.72F
$$

NDZ018>021-031>035-040>046-290700-
SOUTHWEST NORTH DAKOTA

CITY           SKY/WX    TMP DP  RH WIND       PRES   REMARKS
BISMARCK       PTCLDY    65  64  97 S3        29.81F
6HR MIN TEMP:  62; 6HR MAX TEMP:  73;

DICKINSON      CLEAR     62  56  80 S12       29.81F
GARRISON         N/A     66  65  96 S6        29.78F
6HR MIN TEMP:  66; 6HR MAX TEMP:  79;

HETTINGER ARPT CLEAR     63  59  87 SE3       29.86F
$$

NDZ004>008-012>016-024-026-027-054-290700-
NORTHEAST NORTH DAKOTA

CITY           SKY/WX    TMP DP  RH WIND       PRES   REMARKS
GRAND FORKS    CLOUDY    67  64  90 S12       29.81F
GRND FRKS AFB  CLOUDY    67  67  99 SW10      29.81F
DEVILS LAKE    CLOUDY    66  63  88 S14       29.78S
$$

NDZ022-023-025-028>030-036>039-047>053-290700-
SOUTHEAST NORTH DAKOTA

CITY           SKY/WX    TMP DP  RH WIND       PRES   REMARKS
FARGO          CLOUDY    66  64  93 SE10      29.82F
6HR MIN TEMP:  66; 6HR MAX TEMP:  68; 6HR PCP: TRACE;

JAMESTOWN      CLOUDY    65  64  97 S8        29.82F FOG
$$



USA.gov is the U.S. government's official web portal to all federal, state and local government web resources and services.